Location: Cheching
(60.0667°N, 164.2167°W)
Time: 00:27:25
(UTC+00:00)

DX 1 - Pass Details

Date: 25 January 2021
Orbit: 618 x 631 km, 98.5° (Epoch: 07 March)

Event Time Altitude Azimuth Distance (km) Brightness Sun altitude
Rises 16:14:26 0° 157° (SSE) 2,910 ? -23.0°
Reaches altitude 10° 16:16:37 10° 157° (SSE) 2,005 ? -22.8°
Maximum altitude 16:20:59 83° 70° (ENE) 640 ? -22.2°
Enters shadow 16:23:38 24° 344° (NNW) 1,324 ? -21.9°
